Find Starlink 37123

NORAD ID: 68275 Int'l Des: 2026-055 Owner: SPXS Country: US Constellation: starlink operational
LEOCIRCULAR

Current View

Loading 3D Globe...

About Starlink 37123

Starlink 37123 (NORAD 68275) is a starlink constellation satellite (v2 mini) launched Mar 19, 2026 by SPXS of US. It operates in LEO, CIRCULAR orbit with a mass of 575.00 kg.

About Starlink 37123

Description loading...

Upcoming Passes

Passes for default location (London). Set your location on the main map for personalized predictions.

Altitude History

Loading altitude history...

Two-Line Element Set

1 68275U 26055P 26169.40236417 .00023033 00000-0 69048-3 0 9998
2 68275 53.1568 209.8212 0001243 82.0042 278.1101 15.34411083 15374
Epoch: Jun 18, 2026 • Age: 22 hours

Current Status

Altitude 465.3 km
Velocity 7.64 km/s
Sub-Earth Point 39.50°N, 140.68°W
Launch Date Mar 19, 2026
Age 0.2 years
Type internet

Technical Details

Classification Payload
Mass 575.00 kg
Dry Mass 530.00 kg
Total Mass 575.00 kg
Length 0.30 m
Diameter 4.10 m
Span 29.00 m
Shape Box + pan
Manufacturer SPXS
Bus Type Starlink V2MO
Phase Status In Orbit
Owner/State SPXS/US

Most Searched